TimeEET,TemperatureF,Dew PointF,Humidity,Sea Level PressureIn,VisibilityMPH,Wind Direction,Wind SpeedMPH,Gust SpeedMPH,PrecipitationIn,Events,Conditions,WindDirDegrees,DateUTC
12:00 AM,84.2,55.4,37,29.83,-9999.0,East,9.2,-,N/A,,Clear,90,2012-11-04 22:00:00
1:00 AM,84.2,53.6,35,29.83,-9999.0,Calm,Calm,-,N/A,,Clear,0,2012-11-04 23:00:00
2:00 AM,81,56,33,29.84,6,North,8.1,,,,,0,2012-11-05 00:00:00
2:00 AM,80.6,57.2,45,29.86,-9999.0,North,8.1,-,N/A,,Clear,360,2012-11-05 00:00:00
3:00 AM,78.8,60.8,54,29.86,-9999.0,NNE,8.1,-,N/A,,Clear,30,2012-11-05 01:00:00
4:00 AM,78.8,60.8,54,29.86,-9999.0,NNE,6.9,-,N/A,,Clear,30,2012-11-05 02:00:00
5:00 AM,77.0,60.8,57,29.89,-9999.0,NNE,9.2,-,N/A,,Clear,30,2012-11-05 03:00:00
6:00 AM,77.0,60.8,57,29.92,-9999.0,NNE,8.1,-,N/A,,Clear,30,2012-11-05 04:00:00
7:00 AM,78.8,59.0,51,29.92,-9999.0,NNE,9.2,-,N/A,,Clear,30,2012-11-05 05:00:00
8:00 AM,82,56,31,29.91,6,NE,12.7,,,,,50,2012-11-05 06:00:00
8:00 AM,82.4,57.2,42,29.95,-9999.0,NE,12.7,-,N/A,,Clear,50,2012-11-05 06:00:00
9:00 AM,86.0,57.2,37,29.95,-9999.0,ENE,15.0,-,N/A,,Clear,60,2012-11-05 07:00:00
10:00 AM,89.6,57.2,33,29.92,-9999.0,ENE,11.5,-,N/A,,Clear,70,2012-11-05 08:00:00
11:00 AM,91.4,57.2,31,29.92,-9999.0,ENE,15.0,-,N/A,,Clear,60,2012-11-05 09:00:00
12:00 PM,95.0,57.2,28,29.89,-9999.0,ENE,6.9,-,N/A,,Clear,60,2012-11-05 10:00:00
1:00 PM,95.0,57.2,28,29.86,-9999.0,ENE,6.9,-,N/A,,Clear,70,2012-11-05 11:00:00
2:00 PM,97,56,16,29.80,6,NNE,9.2,,,,,30,2012-11-05 12:00:00
2:00 PM,96.8,57.2,27,29.83,-9999.0,NNE,9.2,-,N/A,,Clear,30,2012-11-05 12:00:00
3:00 PM,96.8,55.4,25,29.83,-9999.0,North,8.1,-,N/A,,Clear,10,2012-11-05 13:00:00
4:00 PM,95.0,53.6,25,29.83,-9999.0,North,6.9,-,N/A,,Clear,360,2012-11-05 14:00:00
5:00 PM,93.2,53.6,26,29.83,-9999.0,North,9.2,-,N/A,,Clear,360,2012-11-05 15:00:00
6:00 PM,89.6,50.0,26,29.86,1.2,North,15.0,-,N/A,,Sand,360,2012-11-05 16:00:00
7:00 PM,87.8,50.0,27,29.86,3.7,North,15.0,-,N/A,,Unknown,360,2012-11-05 17:00:00
8:00 PM,85,51,21,29.86,6,North,15.0,,,,,0,2012-11-05 18:00:00
8:00 PM,84.2,51.8,33,29.89,-9999.0,North,15.0,-,N/A,,Clear,360,2012-11-05 18:00:00
9:00 PM,84.2,51.8,33,29.89,-9999.0,North,10.4,-,N/A,,Clear,360,2012-11-05 19:00:00
10:00 PM,82.4,51.8,35,29.89,-9999.0,North,11.5,-,N/A,,Clear,360,2012-11-05 20:00:00
11:00 PM,82.4,51.8,35,29.89,-9999.0,North,8.1,-,N/A,,Clear,360,2012-11-05 21:00:00